This demonstration page uses our WeatherBlox Daily Observations layout. Learn more.

Left ArrowRight Arrow

39.01783, -85.05884

Hourly Observations for September 8, 2021

Temp ( °F °C ) Dew Point ( °F °C ) Humidity (%) Winds ( mph kmh ) Pressure ( in mb ) Visibility ( mi km ) Precip ( " mm )
12:52 am 00:52 Cloudy 71 21.7 57 13.9 61 61 SW 8 13 29.83 1010 10 16 0.00 0.00
1:52 am 01:52 Cloudy 70 21.1 57 13.9 64 64 SSW 12 19 29.80 1009 10 16 0.00 0.00
2:52 am 02:52 Cloudy with Light Rain 70 21.1 57 13.9 64 64 SSW 12 19 29.77 1008 10 16 0.00 0.00
3:41 am 03:41 Cloudy with Light Rain 66 18.9 60 15.6 81 81 WSW 13 20 29.80 1009 8 13 0.02 0.51
3:52 am 03:52 Cloudy with Light Rain 66 18.9 60 15.6 81 81 WSW 9 15 29.77 1008 10 16 0.02 0.51
4:52 am 04:52 Mostly Cloudy 65 18.3 60 15.6 84 84 SW 8 13 29.77 1008 10 16 0.01 0.25
5:52 am 05:52 Cloudy 65 18.3 60 15.6 84 84 SW 7 11 29.78 1008 10 16 0.00 0.00
6:52 am 06:52 Cloudy with Light Rain 65 18.3 61 16.1 87 87 SSW 6 9 29.78 1009 6 10 0.03 0.76
7:52 am 07:52 Cloudy 65 18.3 61 16.1 87 87 SW 7 11 29.79 1009 10 16 0.02 0.51
8:31 am 08:31 Cloudy 66 18.9 61 16.1 84 84 SW 6 9 29.80 1009 10 16 0.00 0.00
8:52 am 08:52 Cloudy 66 18.9 62 16.7 87 87 W 6 9 29.80 1009 10 16 0.00 0.00
9:52 am 09:52 Cloudy 68 20 62 16.7 81 81 WSW 6 9 29.80 1009 10 16 0.00 0.00
10:41 am 10:41 Cloudy 69 20.6 62 16.7 78 78 W 6 9 29.82 1010 10 16 0.00 0.00
10:52 am 10:52 Mostly Cloudy 70 21.1 62 16.7 76 76 W 8 13 29.80 1009 10 16 0.00 0.00
11:52 am 11:52 Mostly Cloudy 72 22.2 64 17.8 76 76 VRB 5 7 29.80 1009 10 16 0.00 0.00
12:52 pm 12:52 Mostly Cloudy 76 24.4 62 16.7 62 62 Calm 29.81 1009 10 16 0.00 0.00
1:52 pm 13:52 Mostly Cloudy 76 24.4 59 15 56 56 VRB 3 6 29.81 1009 10 16 0.00 0.00
2:52 pm 14:52 Mostly Sunny 79 26.1 56 13.3 45 45 NNW 12 19 29.80 1009 10 16 0.00 0.00
3:52 pm 15:52 Mostly Sunny 81 27.2 51 10.6 35 35 WNW 8 13 29.80 1009 10 16 0.00 0.00
4:52 pm 16:52 Mostly Sunny 80 26.7 50 10 35 35 W 7 11 29.79 1009 10 16 0.00 0.00
5:52 pm 17:52 Mostly Sunny 80 26.7 50 10 35 35 NW 9 15 29.79 1009 10 16 0.00 0.00
6:52 pm 18:52 Mostly Sunny 78 25.6 49 9.4 36 36 WNW 7 11 29.81 1010 10 16 0.00 0.00
7:52 pm 19:52 Mostly Sunny 71 21.7 52 11.1 51 51 W 5 7 29.82 1010 10 16 0.00 0.00
8:52 pm 20:52 Mostly Clear 68 20 53 11.7 59 59 W 6 9 29.83 1010 10 16 0.00 0.00
9:52 pm 21:52 Mostly Clear 66 18.9 53 11.7 63 63 W 7 11 29.84 1011 10 16 0.00 0.00
10:52 pm 22:52 Mostly Clear 65 18.3 53 11.7 66 66 W 8 13 29.84 1011 10 16 0.00 0.00
11:52 pm 23:52 Mostly Clear 64 17.8 52 11.1 65 65 WSW 5 7 29.85 1011 10 16 0.00 0.00

Powered by AerisWeather